Saint Michaels, AZ

3:10 AM MDT on September 26, 2016 (GMT -0600)
Window Rock

Weather History for KRQE - August, 2013

Change the Weather History Date:

Wednesday, August 14, 2013

  Actual Average Record
Temperature  
Mean Temperature 68 °F -  
Max Temperature 84 °F 80 °F 93 °F (1962)
Min Temperature 52 °F 52 °F 44 °F (1944)
Cooling Degree Days 3    
Growing Degree Days 18 (Base 50)    
Moisture  
Dew Point 39 °F    
Average Humidity 39    
Maximum Humidity 74    
Minimum Humidity 14    
Precipitation  
Precipitation 0.01 in - - ()
Sea Level Pressure  
Sea Level Pressure 29.95 in    
Wind  
Wind Speed 3 mph (WNW)    
Max Wind Speed 15 mph    
Max Gust Speed 21 mph    
Visibility 10 miles    
Events Rain    
Averages and records for this station are not official NWS values.
T = Trace of Precipitation, MM = Missing Value Source: NWS Daily Summary

Daily Weather History Graph

Daily Weather History Graph

Search for Another Location

Airport or City:

Trip Planner

Search our weather history database for the weather conditions in past years. The results will help you decide how hot, cold, wet, or windy it might be!

Date:

Astronomy

Aug. 14, 2013 Rise Set
Actual Time 6:34 AM MDT 8:06 PM MDT
Civil Twilight 6:07 AM MDT 8:33 PM MDT
Nautical Twilight 5:34 AM MDT 9:05 PM MDT
Astronomical Twilight 5:00 AM MDT 9:40 PM MDT
Moon 2:19 PM MDT (8/14) 12:01 AM MDT (8/14)
Length of Visible Light 14h 25m
Length of Day
13h 31m
First Quarter, 53% of the Moon is Illuminated
Aug 14
First Quarter
Aug 20
Full
Aug 28
Last Quarter
Sep 5
New
Sep 12
First Quarter

Hourly Weather History & Observations

Time (MDT) Temp. Dew Point Humidity Pressure Visibility Wind Dir Wind Speed Gust Speed Precip Events Conditions
12:53 AM 53.1 °F 43.0 °F 69% 29.98 in 10.0 mi Calm Calm - N/A   Partly Cloudy
1:53 AM 52.0 °F 42.1 °F 69% 29.97 in 10.0 mi Calm Calm - N/A   Clear
2:53 AM 54.0 °F 45.0 °F 72% 29.96 in 10.0 mi Calm Calm - N/A   Overcast
3:53 AM 57.0 °F 44.1 °F 62% 29.93 in 10.0 mi NNE 4.6 mph - N/A   Scattered Clouds
4:53 AM 52.0 °F 44.1 °F 74% 29.96 in 10.0 mi SSW 3.5 mph - N/A   Partly Cloudy
5:53 AM 53.1 °F 43.0 °F 69% 29.96 in 10.0 mi Calm Calm - N/A   Clear
7:53 AM 57.9 °F 45.0 °F 62% 29.98 in 10.0 mi SSW 4.6 mph - N/A   Partly Cloudy
8:53 AM 64.0 °F 43.0 °F 46% 30.00 in 10.0 mi SSW 3.5 mph - N/A   Mostly Cloudy
9:53 AM 73.0 °F 43.0 °F 34% 30.00 in 10.0 mi Calm Calm - N/A   Partly Cloudy
10:53 AM 78.1 °F 42.1 °F 28% 30.00 in 10.0 mi SW 4.6 mph - N/A   Clear
11:53 AM 71.1 °F 46.9 °F 42% 30.04 in 7.0 mi North 6.9 mph - 0.01 in Rain Light Rain
12:53 PM 80.1 °F 37.0 °F 21% 29.98 in 10.0 mi South 4.6 mph - 0.00 in   Scattered Clouds
1:53 PM 82.0 °F 34.0 °F 18% 29.96 in 10.0 mi NNE 3.5 mph - N/A   Scattered Clouds
2:53 PM 84.9 °F 30.0 °F 14% 29.92 in 10.0 mi NW 6.9 mph - N/A   Scattered Clouds
3:53 PM 84.0 °F 30.9 °F 15% 29.90 in 10.0 mi WNW 15.0 mph 20.7 mph N/A   Clear
4:53 PM 82.0 °F 28.9 °F 14% 29.92 in 10.0 mi North 11.5 mph - N/A   Partly Cloudy
5:53 PM 82.0 °F 30.0 °F 15% 29.89 in 10.0 mi Calm Calm - N/A   Partly Cloudy
6:53 PM 80.1 °F 32.0 °F 17% 29.88 in 10.0 mi WNW 6.9 mph - N/A   Clear
7:53 PM 78.1 °F 34.0 °F 20% 29.89 in 10.0 mi WNW 3.5 mph - N/A   Clear
8:53 PM 72.0 °F 37.9 °F 29% 29.91 in 10.0 mi Calm Calm - N/A   Partly Cloudy
9:53 PM 70.0 °F 37.0 °F 30% 29.91 in 10.0 mi Calm Calm - N/A   Partly Cloudy
10:53 PM 64.0 °F 39.9 °F 41% 29.92 in 10.0 mi Calm Calm - N/A   Clear
11:53 PM 64.9 °F 39.9 °F 40% 29.95 in 10.0 mi Calm Calm - N/A   Clear